Zurück zum Katalog

SL-12 DEB

LostHEO
NORAD 43607·DEBRIS·🇷🇺 Russia

Gestartet Mar 1, 2010 von Baikonur Cosmodrome

Loading…

Nächste Überflüge (nächste 24 Stunden)

TLE

VeraltetSource: Space-Track

Epoche: Feb 16, 2022, 12:42 UTC

1 43607U 10007AJ  22047.52979553  .00018966  00000-0  31185-2 0  9998
2 43607  65.2758 226.4609 4766102 303.5541  19.6193  6.00883802 68403

Verfolge SL-12 DEB in Echtzeit mit AllMySat

Download on the App Store